Location: Unspecified
(42.3650°N, 71.1030°W)
Time: 16:32:20
(UTC+00:00)

S-56A Canister/Altair - Pass Details

Date: 04 July 2024
Orbit: 638 x 2487 km, 38.9° (Epoch: 20 July)

Event Time Altitude Azimuth Distance (km) Brightness Sun altitude
Rises 01:12:49 0° 271° (W) 3,626 11.9 -8.0°
Reaches altitude 10° 01:15:03 10° 268° (W) 2,859 11.2 -8.3°
Maximum altitude 01:22:03 67° 188° (S) 1,482 8.8 -9.2°
Drops below altitude 10° 01:32:48 10° 109° (ESE) 4,283 10.8 -10.7°
Enters shadow 01:33:57 - 108° (ESE) 4,640 11.0 -10.8°
